KUIPER-00129

导读 | 豆包AI

KUIPER-00151是美国亚马逊“柯伊伯计划”(Project Kuiper)中的一颗近地轨道互联网卫星,于2025年9月25日由联合发射联盟(ULA)发射,隶属于亚马逊打造的全球低轨卫星互联网星座。 本次发射共有27颗柯伊伯卫星入轨,发射完成后星座规模达到129颗,该卫星入轨后将先运行于465公里轨道,后续会提升至预定轨道,助力亚马逊实现2026年7月前完成一半星座部署的目标。柯伊伯计划计划部署超过3200颗卫星,为全球提供高速卫星互联网接入服务。

Basic Information
目录编号:
65771
目录名称:
KUIPER-00151
国际标识:
2025-217K
轨道中心:
EARTH
卫星名称:
KUIPER-00151
卫星全名:
KUIPER-00129
卫星状态:
在轨 (已飞行242 天)
发射日期:
2025-09-25 UTC
国别 :
美国 (US)
星等 :
--
Orbit Information
数据来源 国际轨道数据
星历时间: 2026-05-24T09:55:43+0800
1天前
查看轨道信息
半长轴: 7007.674km
偏心率: 0.000108
轨道倾角: 51.901°
近地点辐角 77.530°
升交点赤经 69.733°
平近点角 282.578°
近地点: 628.78km
远地点: 630.294km
周期: 97.302分钟
每日圈数: 14.799328
Detailed Information
使用方式:
暂无
2D Orbit Map
3D Orbit Map
Orbit Altitude Analysis Chart
Orbit Inclination Analysis Chart
Orbit Comprehensive Analysis Chart
View Comprehensive Chart